Le nostre stazioni meteo in Italia

Pubblicità
Il mio iltempo24.it
Capo Frasca, Italia (16539): Temperatura & dewpoint: 10.12.2017 17:00:00 - 16.12.2017 17:00:00 (CET)Capo Frasca, Italia (16539): velocità del vento: 10.12.2017 17:00:00 - 16.12.2017 17:00:00 (CET)Capo Frasca, Italia (16539): direzione del vento: 10.12.2017 17:00:00 - 16.12.2017 17:00:00 (CET)Capo Frasca, Italia (16539): reduced air pressure: 10.12.2017 17:00:00 - 16.12.2017 17:00:00 (CET)Capo Frasca, Italia (16539): visibility: 10.12.2017 17:00:00 - 16.12.2017 17:00:00 (CET)
Data & Tempo tt [°C] td [°C] ff [km/h] ff [kn] dd ppp [hPa] vv [km]
16.12.2017 17:00:00 - - - - - - -
16.12.2017 16:00:00 12,6 9,2 35 19 NO 1010,6 25
16.12.2017 15:00:00 - - - - - - -
16.12.2017 14:00:00 - - - - - - -
16.12.2017 13:00:00 11,8 6,1 28 15 NO 1010,4 25
16.12.2017 12:00:00 - - - - - - -
16.12.2017 11:00:00 - - - - - - -
16.12.2017 10:00:00 12,0 7,1 28 15 NO 1009,5 25
16.12.2017 09:00:00 - - - - - - -
16.12.2017 08:00:00 - - - - - - -
16.12.2017 07:00:00 11,4 11,1 28 15 NNO 1007,7 20
16.12.2017 06:00:00 - - - - - - -
16.12.2017 05:00:00 - - - - - - -
16.12.2017 04:00:00 - - - - - - -
16.12.2017 03:00:00 - - - - - - -
16.12.2017 02:00:00 - - - - - - -
16.12.2017 01:00:00 - - - - - - -
16.12.2017 00:00:00 - - - - - - -
15.12.2017 23:00:00 - - - - - - -
15.12.2017 22:00:00 - - - - - - -
15.12.2017 21:00:00 - - - - - - -
15.12.2017 20:00:00 - - - - - - -
15.12.2017 19:00:00 12,0 11,9 18 10 NO 1004,8 15
15.12.2017 18:00:00 - - - - - - -
15.12.2017 17:00:00 - - - - - - -
15.12.2017 16:00:00 14,6 14,6 34 18 O 1002,0 2,0
15.12.2017 15:00:00 - - - - - - -
15.12.2017 14:00:00 - - - - - - -
15.12.2017 13:00:00 15,4 15,4 42 23 SO 1003,6 2,0
15.12.2017 12:00:00 - - - - - - -
15.12.2017 11:00:00 - - - - - - -
15.12.2017 10:00:00 15,4 15,4 31 17 SO 1007,2 8
15.12.2017 09:00:00 - - - - - - -
15.12.2017 08:00:00 - - - - - - -
15.12.2017 07:00:00 15,2 15,2 26 14 SO 1008,5 20
15.12.2017 06:00:00 - - - - - - -
15.12.2017 05:00:00 - - - - - - -
15.12.2017 04:00:00 - - - - - - -
15.12.2017 03:00:00 - - - - - - -
15.12.2017 02:00:00 - - - - - - -
15.12.2017 01:00:00 - - - - - - -
15.12.2017 00:00:00 - - - - - - -
14.12.2017 23:00:00 - - - - - - -
14.12.2017 22:00:00 - - - - - - -
14.12.2017 21:00:00 - - - - - - -
14.12.2017 20:00:00 - - - - - - -
14.12.2017 19:00:00 15,4 15,4 22 12 SO 1015,5 12
14.12.2017 18:00:00 - - - - - - -
14.12.2017 17:00:00 - - - - - - -
14.12.2017 16:00:00 16,0 16,0 28 15 SO 1015,9 12
14.12.2017 15:00:00 - - - - - - -
14.12.2017 14:00:00 - - - - - - -
14.12.2017 13:00:00 15,6 14,0 21 11 SO 1018,9 15
14.12.2017 12:00:00 - - - - - - -
14.12.2017 11:00:00 - - - - - - -
14.12.2017 10:00:00 15,4 13,6 22 12 OSO 1019,7 20
14.12.2017 09:00:00 - - - - - - -
14.12.2017 08:00:00 - - - - - - -
14.12.2017 07:00:00 14,6 11,4 28 15 OSO 1019,9 20
14.12.2017 06:00:00 - - - - - - -
14.12.2017 05:00:00 - - - - - - -
14.12.2017 04:00:00 - - - - - - -
14.12.2017 03:00:00 - - - - - - -
14.12.2017 02:00:00 - - - - - - -
14.12.2017 01:00:00 - - - - - - -
14.12.2017 00:00:00 - - - - - - -
13.12.2017 23:00:00 - - - - - - -
13.12.2017 22:00:00 - - - - - - -
13.12.2017 21:00:00 - - - - - - -
13.12.2017 20:00:00 - - - - - - -
13.12.2017 19:00:00 11,8 3,6 18 10 O 1023,0 20
13.12.2017 18:00:00 - - - - - - -
13.12.2017 17:00:00 - - - - - - -
13.12.2017 16:00:00 13,4 5,8 18 10 ONO 1022,9 20
13.12.2017 15:00:00 - - - - - - -
13.12.2017 14:00:00 - - - - - - -
13.12.2017 13:00:00 13,2 7,4 21 11 ONO 1023,3 20
13.12.2017 12:00:00 - - - - - - -
13.12.2017 11:00:00 - - - - - - -
13.12.2017 10:00:00 12,0 8,3 22 12 NO 1022,4 20
13.12.2017 09:00:00 - - - - - - -
13.12.2017 08:00:00 - - - - - - -
13.12.2017 07:00:00 11,8 11,8 18 10 NNO 1020,1 15
13.12.2017 06:00:00 - - - - - - -
13.12.2017 05:00:00 - - - - - - -
13.12.2017 04:00:00 - - - - - - -
13.12.2017 03:00:00 - - - - - - -
13.12.2017 02:00:00 - - - - - - -
13.12.2017 01:00:00 - - - - - - -
13.12.2017 00:00:00 - - - - - - -
12.12.2017 23:00:00 - - - - - - -
12.12.2017 22:00:00 - - - - - - -
12.12.2017 21:00:00 - - - - - - -
12.12.2017 20:00:00 - - - - - - -
12.12.2017 19:00:00 13,4 13,4 13 7 ONO 1015,3 15
12.12.2017 18:00:00 - - - - - - -
12.12.2017 17:00:00 - - - - - - -
12.12.2017 16:00:00 15,4 12,4 9 5 S 1013,0 12
12.12.2017 15:00:00 - - - - - - -
12.12.2017 14:00:00 - - - - - - -
12.12.2017 13:00:00 16,4 14,2 13 7 SSO 1012,5 15
12.12.2017 12:00:00 - - - - - - -
12.12.2017 11:00:00 - - - - - - -
12.12.2017 10:00:00 16,2 14,5 15 8 SSO 1011,7 10
12.12.2017 09:00:00 - - - - - - -
12.12.2017 08:00:00 - - - - - - -
12.12.2017 07:00:00 15,2 15,2 11 6 SSO 1009,3 20
12.12.2017 06:00:00 - - - - - - -
12.12.2017 05:00:00 - - - - - - -
12.12.2017 04:00:00 - - - - - - -
12.12.2017 03:00:00 - - - - - - -
12.12.2017 02:00:00 - - - - - - -
12.12.2017 01:00:00 - - - - - - -
12.12.2017 00:00:00 - - - - - - -
11.12.2017 23:00:00 - - - - - - -
11.12.2017 22:00:00 - - - - - - -
11.12.2017 21:00:00 - - - - - - -
11.12.2017 20:00:00 - - - - - - -
11.12.2017 19:00:00 18,6 9,9 26 14 S 1003,0 20
11.12.2017 18:00:00 - - - - - - -
11.12.2017 17:00:00 - - - - - - -
11.12.2017 16:00:00 19,0 11,1 21 11 S 1003,0 20
11.12.2017 15:00:00 - - - - - - -
11.12.2017 14:00:00 - - - - - - -
11.12.2017 13:00:00 18,8 12,3 22 12 S 1003,3 20
11.12.2017 12:00:00 - - - - - - -
11.12.2017 11:00:00 - - - - - - -
11.12.2017 10:00:00 18,4 11,5 29 16 S 1004,3 20
11.12.2017 09:00:00 - - - - - - -
11.12.2017 08:00:00 - - - - - - -
11.12.2017 07:00:00 17,6 12,5 31 17 S 1005,0 20
11.12.2017 06:00:00 - - - - - - -
11.12.2017 05:00:00 - - - - - - -
11.12.2017 04:00:00 - - - - - - -
11.12.2017 03:00:00 - - - - - - -
11.12.2017 02:00:00 - - - - - - -
11.12.2017 01:00:00 - - - - - - -
11.12.2017 00:00:00 - - - - - - -
10.12.2017 23:00:00 - - - - - - -
10.12.2017 22:00:00 - - - - - - -
10.12.2017 21:00:00 - - - - - - -
10.12.2017 20:00:00 - - - - - - -
10.12.2017 19:00:00 15,4 15,1 29 16 S 1011,4 20
10.12.2017 18:00:00 - - - - - - -
10.12.2017 17:00:00 - - - - - - -

tt = Temperatura
td = dewpoint
ff = velocità del vento
dd = direzione del vento
ppp = reduced air pressure
vv = visibility

Stazioni seguenti

WeatherPro
AMSI
MeteoEarth